Year,Month,Day,Hour,Minute,Value (Times are PST for temperature in C)
2022,05,17,00,00,7.50
2022,05,17,00,01,7.50
2022,05,17,00,02,7.50
2022,05,17,00,03,7.50
2022,05,17,00,04,7.50
2022,05,17,00,05,7.50
2022,05,17,00,06,7.40
2022,05,17,00,07,7.40
2022,05,17,00,08,7.40
2022,05,17,00,09,7.40
2022,05,17,00,10,7.30
2022,05,17,00,11,7.30
2022,05,17,00,12,7.30
2022,05,17,00,13,7.30
2022,05,17,00,14,7.30
2022,05,17,00,15,7.30
2022,05,17,00,16,7.30
2022,05,17,00,17,7.30
2022,05,17,00,18,7.30
2022,05,17,00,19,7.30
2022,05,17,00,20,7.30
2022,05,17,00,21,7.30
2022,05,17,00,22,7.30
2022,05,17,00,23,7.30
2022,05,17,00,24,7.30
2022,05,17,00,25,7.30
2022,05,17,00,26,7.30
2022,05,17,00,27,7.30
2022,05,17,00,28,7.30
2022,05,17,00,29,7.30
2022,05,17,00,30,7.30
2022,05,17,00,31,7.30
2022,05,17,00,32,7.30
2022,05,17,00,33,7.30
2022,05,17,00,34,7.30
2022,05,17,00,35,7.30
2022,05,17,00,36,7.30
2022,05,17,00,37,7.30
2022,05,17,00,38,7.20
2022,05,17,00,39,7.10
2022,05,17,00,40,7.10
2022,05,17,00,41,7.00
2022,05,17,00,42,7.00
2022,05,17,00,43,6.90
2022,05,17,00,44,6.80
2022,05,17,00,45,6.80
2022,05,17,00,46,6.70
2022,05,17,00,47,6.70
2022,05,17,00,48,6.70
2022,05,17,00,49,6.60
2022,05,17,00,50,6.60
2022,05,17,00,51,6.60
2022,05,17,00,52,6.60
2022,05,17,00,53,6.60
2022,05,17,00,54,6.60
2022,05,17,00,55,6.60
2022,05,17,00,56,6.60
2022,05,17,00,57,6.60
2022,05,17,00,58,6.60
2022,05,17,00,59,6.60
2022,05,17,01,00,6.60
2022,05,17,01,01,6.60
2022,05,17,01,02,6.70
2022,05,17,01,03,6.70
2022,05,17,01,04,6.70
2022,05,17,01,05,6.70
2022,05,17,01,06,6.70
2022,05,17,01,07,6.70
2022,05,17,01,08,6.70
2022,05,17,01,09,6.70
2022,05,17,01,10,6.70
2022,05,17,01,11,6.70
2022,05,17,01,12,6.70
2022,05,17,01,13,6.70
2022,05,17,01,14,6.70
2022,05,17,01,15,6.70
2022,05,17,01,16,6.70
2022,05,17,01,17,6.60
2022,05,17,01,18,6.60
2022,05,17,01,19,6.60
2022,05,17,01,20,6.60
2022,05,17,01,21,6.60
2022,05,17,01,22,6.60
2022,05,17,01,23,6.60
2022,05,17,01,24,6.50
2022,05,17,01,25,6.40
2022,05,17,01,26,6.40
2022,05,17,01,27,6.40
2022,05,17,01,28,6.40
2022,05,17,01,29,6.30
2022,05,17,01,30,6.30
2022,05,17,01,31,6.20
2022,05,17,01,32,6.20
2022,05,17,01,33,6.20
2022,05,17,01,34,6.20
2022,05,17,01,35,6.10
2022,05,17,01,36,6.10
2022,05,17,01,37,6.10
2022,05,17,01,38,6.00
2022,05,17,01,39,6.00
2022,05,17,01,40,6.00
2022,05,17,01,41,6.00
2022,05,17,01,42,6.00
2022,05,17,01,43,6.00
2022,05,17,01,44,6.00
2022,05,17,01,45,6.00
2022,05,17,01,46,6.00
2022,05,17,01,47,6.00
2022,05,17,01,48,6.00
2022,05,17,01,49,6.00
2022,05,17,01,50,6.00
2022,05,17,01,51,6.00
2022,05,17,01,52,6.00
2022,05,17,01,53,6.00
2022,05,17,01,54,6.00
2022,05,17,01,55,5.90
2022,05,17,01,56,5.90
2022,05,17,01,57,5.90
2022,05,17,01,58,5.80
2022,05,17,01,59,5.80
2022,05,17,02,00,5.70
2022,05,17,02,01,5.70
2022,05,17,02,02,5.70
2022,05,17,02,03,5.60
2022,05,17,02,04,5.60
2022,05,17,02,05,5.60
2022,05,17,02,06,5.50
2022,05,17,02,07,5.50
2022,05,17,02,08,5.40
2022,05,17,02,09,5.40
2022,05,17,02,10,5.40
2022,05,17,02,11,5.30
2022,05,17,02,12,5.30
2022,05,17,02,13,5.30
2022,05,17,02,14,5.30
2022,05,17,02,15,5.30
2022,05,17,02,16,5.30
2022,05,17,02,17,5.30
2022,05,17,02,18,5.30
2022,05,17,02,19,5.30
2022,05,17,02,20,5.20
2022,05,17,02,21,5.20
2022,05,17,02,22,5.20
2022,05,17,02,23,5.20
2022,05,17,02,24,5.20
2022,05,17,02,25,5.20
2022,05,17,02,26,5.20
2022,05,17,02,27,5.20
2022,05,17,02,28,5.20
2022,05,17,02,29,5.20
2022,05,17,02,30,5.20
2022,05,17,02,31,5.20
2022,05,17,02,32,5.20
2022,05,17,02,33,5.20
2022,05,17,02,34,5.20
2022,05,17,02,35,5.20
2022,05,17,02,36,5.30
2022,05,17,02,37,5.30
2022,05,17,02,38,5.30
2022,05,17,02,39,5.30
2022,05,17,02,40,5.30
2022,05,17,02,41,5.30
2022,05,17,02,42,5.30
2022,05,17,02,43,5.30
2022,05,17,02,44,5.30
2022,05,17,02,45,5.30
2022,05,17,02,46,5.20
2022,05,17,02,47,5.20
2022,05,17,02,48,5.30
2022,05,17,02,49,5.30
2022,05,17,02,50,5.30
2022,05,17,02,51,5.30
2022,05,17,02,52,5.30
2022,05,17,02,53,5.30
2022,05,17,02,54,5.30
2022,05,17,02,55,5.30
2022,05,17,02,56,5.30
2022,05,17,02,57,5.30
2022,05,17,02,58,5.30
2022,05,17,02,59,5.30
2022,05,17,03,00,5.30
2022,05,17,03,01,5.30
2022,05,17,03,02,5.40
2022,05,17,03,03,5.40
2022,05,17,03,04,5.40
2022,05,17,03,05,5.50
2022,05,17,03,06,5.50
2022,05,17,03,07,5.50
2022,05,17,03,08,5.50
2022,05,17,03,09,5.50
2022,05,17,03,10,5.60
2022,05,17,03,11,5.60
2022,05,17,03,12,5.60
2022,05,17,03,13,5.60
2022,05,17,03,14,5.70
2022,05,17,03,15,5.70
2022,05,17,03,16,5.70
2022,05,17,03,17,5.70
2022,05,17,03,18,5.70
2022,05,17,03,19,5.70
2022,05,17,03,20,5.70
2022,05,17,03,21,5.70
2022,05,17,03,22,5.70
2022,05,17,03,23,5.70
2022,05,17,03,24,5.70
2022,05,17,03,25,5.70
2022,05,17,03,26,5.70
2022,05,17,03,27,5.70
2022,05,17,03,28,5.70
2022,05,17,03,29,5.70
2022,05,17,03,30,5.70
2022,05,17,03,31,5.70
2022,05,17,03,32,5.70
2022,05,17,03,33,5.70
2022,05,17,03,34,5.70
2022,05,17,03,35,5.70
2022,05,17,03,36,5.70
2022,05,17,03,37,5.60
2022,05,17,03,38,5.60
2022,05,17,03,39,5.60
2022,05,17,03,40,5.60
2022,05,17,03,41,5.60
2022,05,17,03,42,5.60
2022,05,17,03,43,5.60
2022,05,17,03,44,5.70
2022,05,17,03,45,5.70
2022,05,17,03,46,5.70
2022,05,17,03,47,5.70
2022,05,17,03,48,5.70
2022,05,17,03,49,5.70
2022,05,17,03,50,5.80
2022,05,17,03,51,5.90
2022,05,17,03,52,6.00
2022,05,17,03,53,6.00
2022,05,17,03,54,6.10
2022,05,17,03,55,6.20
2022,05,17,03,56,6.20
2022,05,17,03,57,6.20
2022,05,17,03,58,6.30
2022,05,17,03,59,6.30
2022,05,17,04,00,6.40
2022,05,17,04,01,6.40
2022,05,17,04,02,6.40
2022,05,17,04,03,6.40
2022,05,17,04,04,6.40
2022,05,17,04,05,6.40
2022,05,17,04,06,6.40
2022,05,17,04,07,6.40
2022,05,17,04,08,6.40
2022,05,17,04,09,6.50
2022,05,17,04,10,6.60
2022,05,17,04,11,6.60
2022,05,17,04,12,6.60
2022,05,17,04,13,6.60
2022,05,17,04,14,6.60
2022,05,17,04,15,6.70
2022,05,17,04,16,6.80
2022,05,17,04,17,6.80
2022,05,17,04,18,6.90
2022,05,17,04,19,7.00
2022,05,17,04,20,7.10
2022,05,17,04,21,7.20
2022,05,17,04,22,7.30
2022,05,17,04,23,7.30
2022,05,17,04,24,7.30
2022,05,17,04,25,7.30
2022,05,17,04,26,7.30
2022,05,17,04,27,7.30
2022,05,17,04,28,7.30
2022,05,17,04,29,7.30
2022,05,17,04,30,7.30
2022,05,17,04,31,7.30
2022,05,17,04,32,7.20
2022,05,17,04,33,7.20
2022,05,17,04,34,7.20
2022,05,17,04,35,7.10
2022,05,17,04,36,7.10
2022,05,17,04,37,7.10
2022,05,17,04,38,7.10
2022,05,17,04,39,7.00
2022,05,17,04,40,7.00
2022,05,17,04,41,7.00
2022,05,17,04,42,6.90
2022,05,17,04,43,6.90
2022,05,17,04,44,6.90
2022,05,17,04,45,6.80
2022,05,17,04,46,6.80
2022,05,17,04,47,6.80
2022,05,17,04,48,6.70
2022,05,17,04,49,6.70
2022,05,17,04,50,6.60
2022,05,17,04,51,6.60
2022,05,17,04,52,6.50
2022,05,17,04,53,6.40
2022,05,17,04,54,6.30
2022,05,17,04,55,6.20
2022,05,17,04,56,6.20
2022,05,17,04,57,6.20
2022,05,17,04,58,6.10
2022,05,17,04,59,6.10
2022,05,17,05,00,6.10
2022,05,17,05,01,6.00
2022,05,17,05,02,6.00
2022,05,17,05,03,6.00
2022,05,17,05,04,6.00
2022,05,17,05,05,6.10
2022,05,17,05,06,6.20
2022,05,17,05,07,6.20
2022,05,17,05,08,6.20
2022,05,17,05,09,6.30
2022,05,17,05,10,6.30
2022,05,17,05,11,6.40
2022,05,17,05,12,6.40
2022,05,17,05,13,6.60
2022,05,17,05,14,6.60
2022,05,17,05,15,6.70
2022,05,17,05,16,6.80
2022,05,17,05,17,6.80
2022,05,17,05,18,6.90
2022,05,17,05,19,7.00
2022,05,17,05,20,7.00
2022,05,17,05,21,7.00
2022,05,17,05,22,7.10
2022,05,17,05,23,7.10
2022,05,17,05,24,7.10
2022,05,17,05,25,7.20
2022,05,17,05,26,7.10
2022,05,17,05,27,7.10
2022,05,17,05,28,7.00
2022,05,17,05,29,6.90
2022,05,17,05,30,6.80
2022,05,17,05,31,6.70
2022,05,17,05,32,6.60
2022,05,17,05,33,6.50
2022,05,17,05,34,6.40
2022,05,17,05,35,6.40
2022,05,17,05,36,6.30
2022,05,17,05,37,6.20
2022,05,17,05,38,6.20
2022,05,17,05,39,6.20
2022,05,17,05,40,6.20
2022,05,17,05,41,6.10
2022,05,17,05,42,6.00
2022,05,17,05,43,6.00
2022,05,17,05,44,6.00
2022,05,17,05,45,6.00
2022,05,17,05,46,6.00
2022,05,17,05,47,6.00
2022,05,17,05,48,6.00
2022,05,17,05,49,6.00
2022,05,17,05,50,6.00
2022,05,17,05,51,6.00
2022,05,17,05,52,6.00
2022,05,17,05,53,6.00
2022,05,17,05,54,6.00
2022,05,17,05,55,6.00
2022,05,17,05,56,5.90
2022,05,17,05,57,5.90
2022,05,17,05,58,5.90
2022,05,17,05,59,5.90
2022,05,17,06,00,5.90
2022,05,17,06,01,5.90
2022,05,17,06,02,5.90
2022,05,17,06,03,5.90
2022,05,17,06,04,5.90
2022,05,17,06,05,5.90
2022,05,17,06,06,5.90
2022,05,17,06,07,5.90
2022,05,17,06,08,5.90
2022,05,17,06,09,5.90
2022,05,17,06,10,5.90
2022,05,17,06,11,5.90
2022,05,17,06,12,5.90
2022,05,17,06,13,6.00
2022,05,17,06,14,6.00
2022,05,17,06,15,6.00
2022,05,17,06,16,6.10
2022,05,17,06,17,6.10
2022,05,17,06,18,6.20
2022,05,17,06,19,6.20
2022,05,17,06,20,6.30
2022,05,17,06,21,6.40
2022,05,17,06,22,6.40
2022,05,17,06,23,6.50
2022,05,17,06,24,6.60
2022,05,17,06,25,6.70
2022,05,17,06,26,6.70
2022,05,17,06,27,6.80
2022,05,17,06,28,6.80
2022,05,17,06,29,6.80
2022,05,17,06,30,6.90
2022,05,17,06,31,6.90
2022,05,17,06,32,6.90
2022,05,17,06,33,6.90
2022,05,17,06,34,6.90
2022,05,17,06,35,6.90
2022,05,17,06,36,6.80
2022,05,17,06,37,6.80
2022,05,17,06,38,6.80
2022,05,17,06,39,6.80
2022,05,17,06,40,6.80
2022,05,17,06,41,6.80
2022,05,17,06,42,6.80
2022,05,17,06,43,6.80
2022,05,17,06,44,6.80
2022,05,17,06,45,6.90
2022,05,17,06,46,6.90
2022,05,17,06,47,6.90
2022,05,17,06,48,7.00
2022,05,17,06,49,7.00
2022,05,17,06,50,7.00
2022,05,17,06,51,7.00
2022,05,17,06,52,7.00
2022,05,17,06,53,7.10
2022,05,17,06,54,7.10
2022,05,17,06,55,7.10
2022,05,17,06,56,7.20
2022,05,17,06,57,7.20
2022,05,17,06,58,7.20
2022,05,17,06,59,7.10
2022,05,17,07,00,7.10
2022,05,17,07,01,7.10
2022,05,17,07,02,7.10
2022,05,17,07,03,7.10
2022,05,17,07,04,7.10
2022,05,17,07,05,7.10
2022,05,17,07,06,7.10
2022,05,17,07,07,7.20
2022,05,17,07,08,7.20
2022,05,17,07,09,7.30
2022,05,17,07,10,7.30
2022,05,17,07,11,7.40
2022,05,17,07,12,7.50
2022,05,17,07,13,7.50
2022,05,17,07,14,7.60
2022,05,17,07,15,7.60
2022,05,17,07,16,7.70
2022,05,17,07,17,7.80
2022,05,17,07,18,7.80
2022,05,17,07,19,7.80
2022,05,17,07,20,7.90
2022,05,17,07,21,8.00
2022,05,17,07,22,8.00
2022,05,17,07,23,8.00
2022,05,17,07,24,8.10
2022,05,17,07,25,8.10
2022,05,17,07,26,8.20
2022,05,17,07,27,8.30
2022,05,17,07,28,8.30
2022,05,17,07,29,8.40
2022,05,17,07,30,8.50
2022,05,17,07,31,8.60
2022,05,17,07,32,8.70
2022,05,17,07,33,8.70
2022,05,17,07,34,8.80
2022,05,17,07,35,8.90
2022,05,17,07,36,9.00
2022,05,17,07,37,9.10
2022,05,17,07,38,9.20
2022,05,17,07,39,9.20
2022,05,17,07,40,9.30
2022,05,17,07,41,9.20
2022,05,17,07,42,9.20
2022,05,17,07,43,9.30
2022,05,17,07,44,9.40
2022,05,17,07,45,9.40
2022,05,17,07,46,9.50
2022,05,17,07,47,9.60
2022,05,17,07,48,9.60
2022,05,17,07,49,9.70
2022,05,17,07,50,9.80
2022,05,17,07,51,9.80
2022,05,17,07,52,9.90
2022,05,17,07,53,9.90
2022,05,17,07,54,10.00
2022,05,17,07,55,10.10
2022,05,17,07,56,10.10
2022,05,17,07,57,10.20
2022,05,17,07,58,10.20
2022,05,17,07,59,10.30
2022,05,17,08,00,10.40
2022,05,17,08,01,10.40
2022,05,17,08,02,10.50
2022,05,17,08,03,10.60
2022,05,17,08,04,10.60
2022,05,17,08,05,10.60
2022,05,17,08,06,10.60
2022,05,17,08,07,10.60
2022,05,17,08,08,10.60
2022,05,17,08,09,10.60
2022,05,17,08,10,10.50
2022,05,17,08,11,10.40
2022,05,17,08,12,10.50
2022,05,17,08,13,10.60
2022,05,17,08,14,10.60
2022,05,17,08,15,10.60
2022,05,17,08,16,10.60
2022,05,17,08,17,10.60
2022,05,17,08,18,10.60
2022,05,17,08,19,10.70
2022,05,17,08,20,10.80
2022,05,17,08,21,10.80
2022,05,17,08,22,10.80
2022,05,17,08,23,10.70
2022,05,17,08,24,10.70
2022,05,17,08,25,10.70
2022,05,17,08,26,10.60
2022,05,17,08,27,10.60
2022,05,17,08,28,10.60
2022,05,17,08,29,10.60
2022,05,17,08,30,10.60
2022,05,17,08,31,10.60
2022,05,17,08,32,10.70
2022,05,17,08,33,10.70
2022,05,17,08,34,10.70
2022,05,17,08,35,10.60
2022,05,17,08,36,10.60
2022,05,17,08,37,10.60
2022,05,17,08,38,10.60
2022,05,17,08,39,10.50
2022,05,17,08,40,10.50
2022,05,17,08,41,10.60
2022,05,17,08,42,10.60
2022,05,17,08,43,10.60
2022,05,17,08,44,10.70
2022,05,17,08,45,10.70
2022,05,17,08,46,10.70
2022,05,17,08,47,10.80
2022,05,17,08,48,10.90
2022,05,17,08,49,10.90
2022,05,17,08,50,11.00
2022,05,17,08,51,11.10
2022,05,17,08,52,11.00
2022,05,17,08,53,10.90
2022,05,17,08,54,11.00
2022,05,17,08,55,11.10
2022,05,17,08,56,11.10
2022,05,17,08,57,11.10
2022,05,17,08,58,11.10
2022,05,17,08,59,11.20
2022,05,17,09,00,11.20
2022,05,17,09,01,11.30
2022,05,17,09,02,11.20
2022,05,17,09,03,11.10
2022,05,17,09,04,11.10
2022,05,17,09,05,11.10
2022,05,17,09,06,11.10
2022,05,17,09,07,11.00
2022,05,17,09,08,10.90
2022,05,17,09,09,10.90
2022,05,17,09,10,10.90
2022,05,17,09,11,10.90
2022,05,17,09,12,11.00
2022,05,17,09,13,11.10
2022,05,17,09,14,11.10
2022,05,17,09,15,11.10
2022,05,17,09,16,11.10
2022,05,17,09,17,11.20
2022,05,17,09,18,11.20
2022,05,17,09,19,11.20
2022,05,17,09,20,11.20
2022,05,17,09,21,11.20
2022,05,17,09,22,11.10
2022,05,17,09,23,11.10
2022,05,17,09,24,11.10
2022,05,17,09,25,11.10
2022,05,17,09,26,11.10
2022,05,17,09,27,11.10
2022,05,17,09,28,11.10
2022,05,17,09,29,11.00
2022,05,17,09,30,10.90
2022,05,17,09,31,10.90
2022,05,17,09,32,10.90
2022,05,17,09,33,10.80
2022,05,17,09,34,10.80
2022,05,17,09,35,10.80
2022,05,17,09,36,10.80
2022,05,17,09,37,10.80
2022,05,17,09,38,10.80
2022,05,17,09,39,10.70
2022,05,17,09,40,10.70
2022,05,17,09,41,10.80
2022,05,17,09,42,10.90
2022,05,17,09,43,11.10
2022,05,17,09,44,11.10
2022,05,17,09,45,11.30
2022,05,17,09,46,11.40
2022,05,17,09,47,11.40
2022,05,17,09,48,11.50
2022,05,17,09,49,11.60
2022,05,17,09,50,11.60
2022,05,17,09,51,11.60
2022,05,17,09,52,11.60
2022,05,17,09,53,11.70
2022,05,17,09,54,11.80
2022,05,17,09,55,11.70
2022,05,17,09,56,11.70
2022,05,17,09,57,11.60
2022,05,17,09,58,11.60
2022,05,17,09,59,11.60
2022,05,17,10,00,11.70
2022,05,17,10,01,11.80
2022,05,17,10,02,11.90
2022,05,17,10,03,12.00
2022,05,17,10,04,12.10
2022,05,17,10,05,12.20
2022,05,17,10,06,12.30
2022,05,17,10,07,12.30
2022,05,17,10,08,12.40
2022,05,17,10,09,12.50
2022,05,17,10,10,12.50
2022,05,17,10,11,12.50
2022,05,17,10,12,12.40
2022,05,17,10,13,12.50
2022,05,17,10,14,12.40
2022,05,17,10,15,12.30
2022,05,17,10,16,12.30
2022,05,17,10,17,12.40
2022,05,17,10,18,12.40
2022,05,17,10,19,12.40
2022,05,17,10,20,12.40
2022,05,17,10,21,12.40
2022,05,17,10,22,12.40
2022,05,17,10,23,12.40
2022,05,17,10,24,12.40
2022,05,17,10,25,12.50
2022,05,17,10,26,12.70
2022,05,17,10,27,12.80
2022,05,17,10,28,12.80
2022,05,17,10,29,12.90
2022,05,17,10,30,13.00
2022,05,17,10,31,13.10
2022,05,17,10,32,13.10
2022,05,17,10,33,13.00
2022,05,17,10,34,12.90
2022,05,17,10,35,12.90
2022,05,17,10,36,13.00
2022,05,17,10,37,13.00
2022,05,17,10,38,13.00
2022,05,17,10,39,13.00
2022,05,17,10,40,12.90
2022,05,17,10,41,13.00
2022,05,17,10,42,13.10
2022,05,17,10,43,13.20
2022,05,17,10,44,13.40
2022,05,17,10,45,13.50
2022,05,17,10,46,13.60
2022,05,17,10,47,13.70
2022,05,17,10,48,13.80
2022,05,17,10,49,13.80
2022,05,17,10,50,13.80
2022,05,17,10,51,13.80
2022,05,17,10,52,13.80
2022,05,17,10,53,13.70
2022,05,17,10,54,13.70
2022,05,17,10,55,13.60
2022,05,17,10,56,13.50
2022,05,17,10,57,13.60
2022,05,17,10,58,13.60
2022,05,17,10,59,13.60
2022,05,17,11,00,13.60
2022,05,17,11,01,13.60
2022,05,17,11,02,13.50
2022,05,17,11,03,13.30
2022,05,17,11,04,13.30
2022,05,17,11,05,13.30
2022,05,17,11,06,13.20
2022,05,17,11,07,13.10
2022,05,17,11,08,13.10
2022,05,17,11,09,13.10
2022,05,17,11,10,12.90
2022,05,17,11,11,12.90
2022,05,17,11,12,12.90
2022,05,17,11,13,12.80
2022,05,17,11,14,12.80
2022,05,17,11,15,12.70
2022,05,17,11,16,12.60
2022,05,17,11,17,12.50
2022,05,17,11,18,12.50
2022,05,17,11,19,12.50
2022,05,17,11,20,12.40
2022,05,17,11,21,12.30
2022,05,17,11,22,12.20
2022,05,17,11,23,12.20
2022,05,17,11,24,12.20
2022,05,17,11,25,12.10
2022,05,17,11,26,12.00
2022,05,17,11,27,11.90
2022,05,17,11,28,11.90
2022,05,17,11,29,12.00
2022,05,17,11,30,11.90
2022,05,17,11,31,11.90
2022,05,17,11,32,11.90
2022,05,17,11,33,11.90
2022,05,17,11,34,11.90
2022,05,17,11,35,11.90
2022,05,17,11,36,11.90
2022,05,17,11,37,11.90
2022,05,17,11,38,11.90
2022,05,17,11,39,11.80
2022,05,17,11,40,11.80
2022,05,17,11,41,11.80
2022,05,17,11,42,11.80
2022,05,17,11,43,11.80
2022,05,17,11,44,11.80
2022,05,17,11,45,11.80
2022,05,17,11,46,11.80
2022,05,17,11,47,11.80
2022,05,17,11,48,11.70
2022,05,17,11,49,11.70
2022,05,17,11,50,11.70
2022,05,17,11,51,11.60
2022,05,17,11,52,11.60
2022,05,17,11,53,11.60
2022,05,17,11,54,11.60
2022,05,17,11,55,11.60
2022,05,17,11,56,11.70
2022,05,17,11,57,11.60
2022,05,17,11,58,11.60
2022,05,17,11,59,11.70
2022,05,17,12,00,11.80
2022,05,17,12,01,11.80
2022,05,17,12,02,11.90
2022,05,17,12,03,12.00
2022,05,17,12,04,12.10
2022,05,17,12,05,12.30
2022,05,17,12,06,12.30
2022,05,17,12,07,12.30
2022,05,17,12,08,12.30
2022,05,17,12,09,12.30
2022,05,17,12,10,12.40
2022,05,17,12,11,12.40
2022,05,17,12,12,12.40
2022,05,17,12,13,12.50
2022,05,17,12,14,12.60
2022,05,17,12,15,12.70
2022,05,17,12,16,12.70
2022,05,17,12,17,12.80
2022,05,17,12,18,12.80
2022,05,17,12,19,12.80
2022,05,17,12,20,12.90
2022,05,17,12,21,13.00
2022,05,17,12,22,13.10
2022,05,17,12,23,13.10
2022,05,17,12,24,13.00
2022,05,17,12,25,13.00
2022,05,17,12,26,13.00
2022,05,17,12,27,13.00
2022,05,17,12,28,12.90
2022,05,17,12,29,13.00
2022,05,17,12,30,13.10
2022,05,17,12,31,13.20
2022,05,17,12,32,13.20
2022,05,17,12,33,13.20
2022,05,17,12,34,13.20
2022,05,17,12,35,13.30
2022,05,17,12,36,13.30
2022,05,17,12,37,13.20
2022,05,17,12,38,13.10
2022,05,17,12,39,13.10
2022,05,17,12,40,13.10
2022,05,17,12,41,13.20
2022,05,17,12,42,13.40
2022,05,17,12,43,13.40
2022,05,17,12,44,13.40
2022,05,17,12,45,13.40
2022,05,17,12,46,13.30
2022,05,17,12,47,13.20
2022,05,17,12,48,13.10
2022,05,17,12,49,13.00
2022,05,17,12,50,12.90
2022,05,17,12,51,12.70
2022,05,17,12,52,12.50
2022,05,17,12,53,12.50
2022,05,17,12,54,12.40
2022,05,17,12,55,12.40
2022,05,17,12,56,12.50
2022,05,17,12,57,12.60
2022,05,17,12,58,12.70
2022,05,17,12,59,12.70
2022,05,17,13,00,12.80
2022,05,17,13,01,12.80
2022,05,17,13,02,12.90
2022,05,17,13,03,13.00
2022,05,17,13,04,13.10
2022,05,17,13,05,13.10
2022,05,17,13,06,13.10
2022,05,17,13,07,13.10
2022,05,17,13,08,13.20
2022,05,17,13,09,13.20
2022,05,17,13,10,13.20
2022,05,17,13,11,13.10
2022,05,17,13,12,13.10
2022,05,17,13,13,13.10
2022,05,17,13,14,13.10
2022,05,17,13,15,13.00
2022,05,17,13,16,12.90
2022,05,17,13,17,12.80
2022,05,17,13,18,12.90
2022,05,17,13,19,12.90
2022,05,17,13,20,13.00
2022,05,17,13,21,13.00
2022,05,17,13,22,12.90
2022,05,17,13,23,12.80
2022,05,17,13,24,12.80
2022,05,17,13,25,12.80
2022,05,17,13,26,12.70
2022,05,17,13,27,12.70
2022,05,17,13,28,12.70
2022,05,17,13,29,12.70
2022,05,17,13,30,12.70
2022,05,17,13,31,12.80
2022,05,17,13,32,12.90
2022,05,17,13,33,12.90
2022,05,17,13,34,12.90
2022,05,17,13,35,12.90
2022,05,17,13,36,12.90
2022,05,17,13,37,12.80
2022,05,17,13,38,12.80
2022,05,17,13,39,12.80
2022,05,17,13,40,12.80
2022,05,17,13,41,12.60
2022,05,17,13,42,12.60
2022,05,17,13,43,12.50
2022,05,17,13,44,12.50
2022,05,17,13,45,12.60
2022,05,17,13,46,12.70
2022,05,17,13,47,12.80
2022,05,17,13,48,12.80
2022,05,17,13,49,12.90
2022,05,17,13,50,13.00
2022,05,17,13,51,13.10
2022,05,17,13,52,13.10
2022,05,17,13,53,13.00
2022,05,17,13,54,12.80
2022,05,17,13,55,12.80
2022,05,17,13,56,12.70
2022,05,17,13,57,12.60
2022,05,17,13,58,12.50
2022,05,17,13,59,12.40
2022,05,17,14,00,12.40
2022,05,17,14,01,12.30
2022,05,17,14,02,12.40
2022,05,17,14,03,12.40
2022,05,17,14,04,12.20
2022,05,17,14,05,12.20
2022,05,17,14,06,12.30
2022,05,17,14,07,12.30
2022,05,17,14,08,12.30
2022,05,17,14,09,12.40
2022,05,17,14,10,12.50
2022,05,17,14,11,12.50
2022,05,17,14,12,12.50
2022,05,17,14,13,12.30
2022,05,17,14,14,12.40
2022,05,17,14,15,12.50
2022,05,17,14,16,12.50
2022,05,17,14,17,12.60
2022,05,17,14,18,12.70
2022,05,17,14,19,12.70
2022,05,17,14,20,12.80
2022,05,17,14,21,12.70
2022,05,17,14,22,12.70
2022,05,17,14,23,12.80
2022,05,17,14,24,12.80
2022,05,17,14,25,12.80
2022,05,17,14,26,12.80
2022,05,17,14,27,12.70
2022,05,17,14,28,12.60
2022,05,17,14,29,12.50
2022,05,17,14,30,12.60
2022,05,17,14,31,12.60
2022,05,17,14,32,12.60
2022,05,17,14,33,12.60
2022,05,17,14,34,12.60
2022,05,17,14,35,12.70
2022,05,17,14,36,12.80
2022,05,17,14,37,12.80
2022,05,17,14,38,12.90
2022,05,17,14,39,13.00
2022,05,17,14,40,13.10
2022,05,17,14,41,13.20
2022,05,17,14,42,13.30
2022,05,17,14,43,13.40
2022,05,17,14,44,13.50
2022,05,17,14,45,13.60
2022,05,17,14,46,13.50
2022,05,17,14,47,13.40
2022,05,17,14,48,13.20
2022,05,17,14,49,13.10
2022,05,17,14,50,12.90
2022,05,17,14,51,12.80
2022,05,17,14,52,12.90
2022,05,17,14,53,13.00
2022,05,17,14,54,13.00
2022,05,17,14,55,13.10
2022,05,17,14,56,13.20
2022,05,17,14,57,13.40
2022,05,17,14,58,13.50
2022,05,17,14,59,13.60
2022,05,17,15,00,13.60
2022,05,17,15,01,13.70
2022,05,17,15,02,13.70
2022,05,17,15,03,13.70
2022,05,17,15,04,13.80
2022,05,17,15,05,13.80
2022,05,17,15,06,13.70
2022,05,17,15,07,13.70
2022,05,17,15,08,13.80
2022,05,17,15,09,13.70
2022,05,17,15,10,13.70
2022,05,17,15,11,13.70
2022,05,17,15,12,13.80
2022,05,17,15,13,13.70
2022,05,17,15,14,13.60
2022,05,17,15,15,13.60
2022,05,17,15,16,13.50
2022,05,17,15,17,13.50
2022,05,17,15,18,13.50
2022,05,17,15,19,13.60
2022,05,17,15,20,13.70
2022,05,17,15,21,13.60
2022,05,17,15,22,13.60
2022,05,17,15,23,13.50
2022,05,17,15,24,13.40
2022,05,17,15,25,13.30
2022,05,17,15,26,13.30
2022,05,17,15,27,13.30
2022,05,17,15,28,13.20
2022,05,17,15,29,13.20
2022,05,17,15,30,13.20
2022,05,17,15,31,13.20
2022,05,17,15,32,13.20
2022,05,17,15,33,13.30
2022,05,17,15,34,13.20
2022,05,17,15,35,13.20
2022,05,17,15,36,13.10
2022,05,17,15,37,13.10
2022,05,17,15,38,13.10
2022,05,17,15,39,13.10
2022,05,17,15,40,13.20
2022,05,17,15,41,13.20
2022,05,17,15,42,13.30
2022,05,17,15,43,13.30
2022,05,17,15,44,13.30
2022,05,17,15,45,13.20
2022,05,17,15,46,13.00
2022,05,17,15,47,12.90
2022,05,17,15,48,12.80
2022,05,17,15,49,12.70
2022,05,17,15,50,12.60
2022,05,17,15,51,12.60
2022,05,17,15,52,12.60
2022,05,17,15,53,12.70
2022,05,17,15,54,12.70
2022,05,17,15,55,12.70
2022,05,17,15,56,12.70
2022,05,17,15,57,12.80
2022,05,17,15,58,12.70
2022,05,17,15,59,12.70
2022,05,17,16,00,12.70
2022,05,17,16,01,12.70
2022,05,17,16,02,12.70
2022,05,17,16,03,12.70
2022,05,17,16,04,12.70
2022,05,17,16,05,12.80
2022,05,17,16,06,12.80
2022,05,17,16,07,12.80
2022,05,17,16,08,12.80
2022,05,17,16,09,12.90
2022,05,17,16,10,12.80
2022,05,17,16,11,12.80
2022,05,17,16,12,12.80
2022,05,17,16,13,12.80
2022,05,17,16,14,12.80
2022,05,17,16,15,12.80
2022,05,17,16,16,12.80
2022,05,17,16,17,12.80
2022,05,17,16,18,12.80
2022,05,17,16,19,12.80
2022,05,17,16,20,12.80
2022,05,17,16,21,12.80
2022,05,17,16,22,12.80
2022,05,17,16,23,12.80
2022,05,17,16,24,12.90
2022,05,17,16,25,12.90
2022,05,17,16,26,13.00
2022,05,17,16,27,13.00
2022,05,17,16,28,13.00
2022,05,17,16,29,13.10
2022,05,17,16,30,13.20
2022,05,17,16,31,13.30
2022,05,17,16,32,13.30
2022,05,17,16,33,13.30
2022,05,17,16,34,13.40
2022,05,17,16,35,13.50
2022,05,17,16,36,13.50
2022,05,17,16,37,13.50
2022,05,17,16,38,13.50
2022,05,17,16,39,13.50
2022,05,17,16,40,13.40
2022,05,17,16,41,13.40
2022,05,17,16,42,13.40
2022,05,17,16,43,13.40
2022,05,17,16,44,13.30
2022,05,17,16,45,13.30
2022,05,17,16,46,13.20
2022,05,17,16,47,13.20
2022,05,17,16,48,13.20
2022,05,17,16,49,13.20
2022,05,17,16,50,13.20
2022,05,17,16,51,13.20
2022,05,17,16,52,13.20
2022,05,17,16,53,13.10
2022,05,17,16,54,13.10
2022,05,17,16,55,13.10
2022,05,17,16,56,13.20
2022,05,17,16,57,13.20
2022,05,17,16,58,13.20
2022,05,17,16,59,13.20
2022,05,17,17,00,13.10
2022,05,17,17,01,13.10
2022,05,17,17,02,13.10
2022,05,17,17,03,13.10
2022,05,17,17,04,13.10
2022,05,17,17,05,13.10
2022,05,17,17,06,13.10
2022,05,17,17,07,13.10
2022,05,17,17,08,13.00
2022,05,17,17,09,13.00
2022,05,17,17,10,13.00
2022,05,17,17,11,13.00
2022,05,17,17,12,13.00
2022,05,17,17,13,13.10
2022,05,17,17,14,13.10
2022,05,17,17,15,13.10
2022,05,17,17,16,13.00
2022,05,17,17,17,13.00
2022,05,17,17,18,13.00
2022,05,17,17,19,13.10
2022,05,17,17,20,13.00
2022,05,17,17,21,13.00
2022,05,17,17,22,13.00
2022,05,17,17,23,13.00
2022,05,17,17,24,13.00
2022,05,17,17,25,13.00
2022,05,17,17,26,13.00
2022,05,17,17,27,13.00
2022,05,17,17,28,13.00
2022,05,17,17,29,13.10
2022,05,17,17,30,13.10
2022,05,17,17,31,13.20
2022,05,17,17,32,13.20
2022,05,17,17,33,13.20
2022,05,17,17,34,13.30
2022,05,17,17,35,13.30
2022,05,17,17,36,13.40
2022,05,17,17,37,13.50
2022,05,17,17,38,13.50
2022,05,17,17,39,13.60
2022,05,17,17,40,13.60